Weather History for KROC - February, 2014

Change the Weather History Date:

Thursday, February 27, 2014

  Actual Average Record
Temperature  
Mean Temperature 13 °F 29 °F  
Max Temperature 19 °F 37 °F 66 °F (2000)
Min Temperature 6 °F 21 °F -6 °F (1993)
Degree Days  
Heating Degree Days 52 36  
Month to date heating degree days 1161 1045  
Since 1 July heating degree days 5029 4749  
Cooling Degree Days 0 0  
Month to date cooling degree days 0 0  
Year to date cooling degree days 0 0  
Moisture  
Dew Point 3 °F    
Average Humidity 71    
Maximum Humidity 88    
Minimum Humidity 53    
Precipitation  
Precipitation 0.14 in 0.08 in 0.80 in (1997)
Month to date precipitation 2.39 1.87  
Year to date precipitation 3.62 4.28  
Snow  
Snow 2.20 in 0.80 in 5.30 in (1953)
Month to date snowfall 26.0 20.8  
Since 1 July snowfall 82.8 78.2  
Snow Depth T in    
Sea Level Pressure  
Sea Level Pressure 29.79 in    
Wind  
Wind Speed 15 mph (WSW)    
Max Wind Speed 29 mph    
Max Gust Speed 43 mph    
Visibility 3 miles    
Events Snow    
T = Trace of Precipitation, MM = Missing Value Source: NWS Daily Summary

Daily Weather History Graph

Daily Weather History Graph

Search for Another Location

Airport or City:

Trip Planner

Search our weather history database for the weather conditions in past years. The results will help you decide how hot, cold, wet, or windy it might be!

Date:

Astronomy

Feb. 27, 2014 Rise Set
Actual Time 6:50 AM EST 5:57 PM EST
Civil Twilight 6:21 AM EST 6:26 PM EST
Nautical Twilight 5:48 AM EST 6:58 PM EST
Astronomical Twilight 5:15 AM EST 7:31 PM EST
Moon 5:23 AM EST (2/27) 4:19 PM EST (2/27)
Length of Visible Light 12h 04m
Length of Day
11h 07m
Waning Crescent, 4% of the Moon is Illuminated
Feb 27
Waning Crescent
Mar 1
New
Mar 8
First Quarter
Mar 16
Full
Mar 23
Last Quarter

Hourly Weather History & Observations

Time (EST) Temp. Windchill Dew Point Humidity Pressure Visibility Wind Dir Wind Speed Gust Speed Precip Events Conditions
12:54 AM 10.9 °F 1.4 °F -2.9 °F 54% 29.73 in 10.0 mi South 5.8 mph - N/A   Overcast
1:54 AM 12.0 °F 1.5 °F -2.0 °F 53% 29.68 in 10.0 mi South 6.9 mph - N/A   Overcast
2:54 AM 12.9 °F -2.2 °F -0.9 °F 54% 29.64 in 10.0 mi SSW 13.8 mph 17.3 mph N/A   Overcast
3:54 AM 14.0 °F -1.4 °F -0.0 °F 54% 29.60 in 10.0 mi SSW 15.0 mph - N/A   Mostly Cloudy
4:54 AM 14.0 °F -1.4 °F 1.0 °F 56% 29.58 in 10.0 mi SSW 15.0 mph 21.9 mph N/A   Scattered Clouds
5:38 AM 14.0 °F -3.0 °F 3.2 °F 62% 29.53 in 4.0 mi SW 18.4 mph - 0.00 in Snow Light Snow
5:54 AM 14.0 °F -2.0 °F 5.0 °F 67% 29.57 in 4.0 mi SSW 16.1 mph 23.0 mph 0.00 in Snow Light Snow
6:41 AM 12.2 °F -1.8 °F 6.8 °F 79% 29.52 in 1.2 mi SSW 11.5 mph 21.9 mph 0.00 in Snow Light Snow
6:54 AM 12.9 °F -0.9 °F 7.0 °F 77% 29.57 in 1.2 mi SSW 11.5 mph - 0.00 in Snow Light Snow
7:54 AM 14.0 °F 1.2 °F 10.0 °F 84% 29.57 in 0.8 mi SW 10.4 mph - 0.01 in Snow Light Snow
8:54 AM 15.1 °F 4.2 °F 10.0 °F 80% 29.57 in 0.5 mi SW 8.1 mph - 0.02 in Snow Snow
9:45 AM 15.8 °F 5.1 °F 10.4 °F 79% 29.52 in 1.0 mi SW 8.1 mph - 0.02 in Snow Light Snow
9:54 AM 16.0 °F 6.3 °F 10.9 °F 81% 29.56 in 2.0 mi SW 6.9 mph - 0.02 in Snow Light Snow
10:17 AM 15.8 °F 6.1 °F 10.4 °F 79% 29.52 in 1.0 mi SSW 6.9 mph - 0.00 in Snow Light Snow
10:54 AM 18.0 °F 6.1 °F 12.0 °F 78% 29.57 in 1.5 mi WSW 10.4 mph - 0.00 in Snow Light Snow
11:00 AM 17.6 °F 3.7 °F 10.4 °F 73% 29.52 in 6.0 mi WSW 13.8 mph 20.7 mph 0.00 in Snow Light Snow
11:35 AM 17.6 °F 2.2 °F 10.4 °F 73% 29.52 in 0.5 mi WSW 17.3 mph 27.6 mph 0.00 in Snow Snow
11:54 AM 16.0 °F -0.4 °F 10.0 °F 77% 29.59 in 0.2 mi WNW 18.4 mph 24.2 mph 0.00 in Snow Heavy Snow
12:23 PM 17.6 °F 3.2 °F 12.2 °F 79% 29.56 in 3.0 mi West 15.0 mph - 0.00 in Snow Light Snow
12:36 PM 15.8 °F 0.3 °F 8.6 °F 73% 29.56 in 0.5 mi West 16.1 mph 25.3 mph 0.00 in Snow Snow
12:43 PM 15.8 °F 1.4 °F 8.6 °F 73% 29.56 in 5.0 mi West 13.8 mph - 0.00 in Snow Light Snow
12:54 PM 17.1 °F 2.0 °F 8.1 °F 68% 29.61 in 8.0 mi West 16.1 mph 25.3 mph 0.00 in Snow Light Snow
1:02 PM 17.6 °F 1.3 °F 6.8 °F 63% 29.58 in 0.5 mi West 19.6 mph 28.8 mph 0.00 in Snow Snow
1:45 PM 12.2 °F -6.3 °F 5.0 °F 73% 29.64 in 2.0 mi WNW 20.7 mph 34.5 mph 0.00 in Snow Light Snow
1:54 PM 12.9 °F -4.9 °F 5.0 °F 71% 29.70 in 1.0 mi NW 19.6 mph 34.5 mph 0.00 in Snow Light Snow
2:54 PM 12.0 °F -6.0 °F 1.0 °F 61% 29.77 in 3.0 mi West 19.6 mph 28.8 mph 0.00 in Snow Light Snow
2:58 PM 12.2 °F -7.9 °F 1.4 °F 62% 29.73 in 3.0 mi West 25.3 mph 29.9 mph 0.00 in Snow Light Snow
3:02 PM 10.4 °F -7.7 °F 3.2 °F 73% 29.74 in 0.5 mi West 18.4 mph 29.9 mph 0.00 in Snow Light Snow
3:15 PM 10.4 °F -10.3 °F 1.4 °F 67% 29.75 in 7.0 mi West 25.3 mph 35.7 mph 0.00 in Snow Light Snow
3:54 PM 10.0 °F -10.4 °F -0.9 °F 61% 29.83 in 6.0 mi WNW 24.2 mph 33.4 mph 0.00 in Snow Light Snow
4:54 PM 9.0 °F -11.0 °F -4.0 °F 56% 29.88 in 4.0 mi West 21.9 mph 34.5 mph 0.00 in Snow Light Snow
5:28 PM 8.6 °F -10.0 °F -0.4 °F 67% 29.87 in 2.0 mi West 18.4 mph 28.8 mph 0.00 in Snow Light Snow
5:30 PM 8.6 °F -8.9 °F -0.4 °F 67% 29.87 in 1.8 mi West 16.1 mph 28.8 mph 0.00 in Snow Light Snow
5:43 PM 8.6 °F -9.5 °F -2.2 °F 62% 29.88 in 3.0 mi West 17.3 mph 26.5 mph 0.00 in Snow Light Snow
5:54 PM 8.1 °F -12.6 °F -0.9 °F 67% 29.94 in 2.5 mi West 23.0 mph 29.9 mph 0.00 in Snow Light Snow
6:07 PM 8.6 °F -10.0 °F -0.4 °F 67% 29.90 in 0.8 mi West 18.4 mph 31.1 mph 0.00 in Snow Light Snow
6:27 PM 8.6 °F -11.4 °F 1.4 °F 73% 29.92 in 0.8 mi West 21.9 mph 29.9 mph 0.00 in Snow Light Snow
6:54 PM 7.0 °F -12.1 °F 1.9 °F 80% 29.99 in 1.5 mi West 18.4 mph 27.6 mph 0.00 in Snow Light Snow
7:02 PM 6.8 °F -13.8 °F 1.4 °F 79% 29.95 in 0.8 mi West 21.9 mph 32.2 mph 0.00 in Snow Light Snow
7:05 PM 6.8 °F -12.4 °F 1.4 °F 79% 29.95 in 2.0 mi West 18.4 mph 32.2 mph 0.00 in Snow Light Snow
7:12 PM 6.8 °F -13.8 °F 1.4 °F 79% 29.96 in 1.2 mi West 21.9 mph 34.5 mph 0.00 in Snow Light Snow
7:24 PM 6.8 °F -12.9 °F 1.4 °F 79% 29.97 in 0.5 mi West 19.6 mph 26.5 mph 0.00 in Snow Snow
7:35 PM 6.8 °F -12.4 °F 1.4 °F 79% 29.98 in 0.5 mi West 18.4 mph 28.8 mph 0.00 in Snow Snow
7:54 PM 6.1 °F -13.8 °F 1.9 °F 83% 30.03 in 0.5 mi West 19.6 mph 29.9 mph 0.00 in Snow Snow
8:19 PM 6.8 °F -13.4 °F 1.4 °F 79% 29.99 in 0.5 mi West 20.7 mph 28.8 mph 0.02 in Snow Snow
8:30 PM 6.8 °F -12.4 °F 1.4 °F 79% 30.00 in 1.5 mi West 18.4 mph 31.1 mph 0.02 in Snow Light Snow
8:54 PM 7.0 °F -11.0 °F 1.0 °F 77% 30.06 in 2.5 mi West 16.1 mph 25.3 mph 0.02 in Snow Light Snow
8:56 PM 6.8 °F -12.4 °F 1.4 °F 79% 30.02 in 3.0 mi West 18.4 mph 25.3 mph 0.00 in Snow Light Snow
8:58 PM 6.8 °F -11.3 °F 1.4 °F 79% 30.02 in 4.0 mi West 16.1 mph 25.3 mph 0.00 in Snow Light Snow
9:15 PM 6.8 °F -10.0 °F -0.4 °F 72% 30.03 in 3.0 mi West 13.8 mph 27.6 mph 0.00 in Snow Light Snow
9:30 PM 6.8 °F -10.7 °F -0.4 °F 72% 30.04 in 4.0 mi West 15.0 mph 25.3 mph 0.00 in Snow Light Snow
9:54 PM 7.0 °F -12.6 °F -2.9 °F 64% 30.09 in 8.0 mi West 19.6 mph 28.8 mph 0.00 in   Overcast
10:14 PM 6.8 °F -12.4 °F -2.2 °F 67% 30.06 in 7.0 mi West 18.4 mph 27.6 mph N/A   Overcast
10:54 PM 7.0 °F -11.6 °F -2.9 °F 64% 30.12 in 2.0 mi West 17.3 mph 29.9 mph 0.00 in Snow Light Snow
11:01 PM 6.8 °F -10.7 °F -2.2 °F 67% 30.08 in 3.0 mi West 15.0 mph 23.0 mph 0.00 in Snow Light Snow
11:21 PM 6.8 °F -11.3 °F -2.2 °F 67% 30.09 in 7.0 mi West 16.1 mph - 0.00 in   Overcast
11:54 PM 6.1 °F -10.2 °F -2.0 °F 69% 30.15 in 4.0 mi West 12.7 mph 21.9 mph 0.00 in Snow Light Snow